Location: Wangen+im+Allg�u
(47.7098°N, 9.8383°E)
Time: 12:56:18
(UTC+01:00)

N. Korean satellite - Visible Passes

Search period start: 18 January 2018 00:00
Search period end: 28 January 2018 00:00
Orbit: 459 x 515 km, 97.2° (Epoch: 17 January)

Date Brightness Start Highest point End Pass type
(mag) Time Alt. Az. Time Alt. Az. Time Alt. Az.
18 Jan 6.4 07:17:10 10° N 07:20:38 81° WNW 07:24:04 10° SSW visible
18 Jan 6.5 17:56:16 10° SSE 17:59:50 61° ENE 18:03:22 10° N visible
18 Jan 10.2 19:32:51 10° WSW 19:33:42 11° W 19:34:34 10° WNW visible
19 Jan 7.5 06:53:35 10° NNE 06:56:57 49° E 07:00:18 10° S visible
19 Jan 7.3 17:33:01 10° SE 17:36:15 32° ENE 17:39:27 10° N visible
19 Jan 9.5 19:07:10 10° SW 19:09:50 19° W 19:12:29 10° NW visible
20 Jan 9.0 06:30:15 10° NE 06:33:12 25° E 06:36:07 10° SSE visible
20 Jan 8.3 18:42:43 10° SSW 18:46:03 35° W 18:49:20 10° NNW visible
21 Jan 9.9 06:07:26 10° ENE 06:09:20 14° E 06:11:14 10° SE visible
21 Jan 6.9 18:18:45 10° S 18:22:19 69° WSW 18:25:52 10° NNW visible
22 Jan 6.4 07:16:00 10° N 07:19:27 83° WNW 07:22:55 10° SSW visible
22 Jan 6.5 17:55:09 10° SSE 17:58:39 59° ENE 18:02:09 10° N visible
22 Jan 10.2 19:31:40 10° WSW 19:32:32 11° W 19:33:24 10° WNW visible
23 Jan 7.6 06:52:23 10° NNE 06:55:46 48° E 06:59:07 10° S visible
23 Jan 9.5 19:06:00 10° SW 19:08:39 19° W 19:11:17 10° NW visible
24 Jan 9.0 06:29:04 10° NE 06:31:59 25° E 06:34:54 10° SSE visible
24 Jan 8.3 18:41:34 10° SSW 18:44:51 35° W 18:48:08 10° NNW visible
25 Jan 9.9 06:06:17 10° ENE 06:08:08 14° E 06:09:58 10° ESE visible
25 Jan 6.8 18:17:35 10° S 18:21:07 71° WSW 18:24:38 10° NNW visible
26 Jan 6.4 07:14:46 10° NNE 07:18:14 85° WNW 07:21:43 10° SSW visible
26 Jan 6.5 17:53:59 10° SSE 17:57:27 58° ENE 18:00:55 10° N visible
26 Jan 10.2 19:30:25 10° WSW 19:31:19 11° W 19:32:13 10° WNW visible
27 Jan 7.7 06:51:10 10° NNE 06:54:32 47° E 06:57:54 10° S visible
27 Jan 9.4 19:04:48 10° SW 19:07:26 20° W 19:10:03 10° NW visible
